Погода в Борогонцах

Россия / Республика Саха (Якутия)     62°40′16″N   131°10′08″E
темп.,
°C
ветер,
м/с
пор.,
м/с
влажн.,
%
обл.,
%
осадки,
мм/ч
давл.,
гПа
погр.,
м
27 февраля, сб
сб2700:00−34в23980 0.0 103426
03:00−35в23980 0.0 103251
06:00−35в369813 0.0 1032101
09:00−32в359619 0.0 1030163
12:00−27в35940 0.0 1029301
15:00−24всв479335 0.0 1025374
18:00−28всв359695 0.0 1024102
21:00−29всв269597 0.0 1022138
28 февраля, вс
вс2800:00−29всв2494100 0.0 1019116
03:00−30св2291100 0.0 101625
06:00−29ссз1289100 0.0 101619
09:00−27с2390100 0.0 1016116
12:00−23з2289100 0.0 1018337
15:00−23зсз3593100 0.0 1019464
18:00−26зсз2498100 0.0 102181
21:00−27з3797100 0.1 1023390
1 марта, пн
пн100:00−28з2697100 0.1 1023406
03:00−29зюз2698100 0.1 1024421
06:00−28зюз2698100 0.1 1024451
09:00−28зюз3594100 0.1 1024642
12:00−26зюз2488100 0.1 1025790
15:00−26зюз2488100 0.1 1025839
18:00−28з1298100 0.1 102619
21:00−29зюз1299100 0.1 102621
2 марта, вт
вт200:00−30зюз129998 0.0 102621
03:00−31зюз229999 0.1 102529
06:00−33юз2210099 0.0 102619
09:00−33юз239997 0.0 102691
12:00−28зюз238991 0.0 1025446
15:00−27зюз239095 0.0 1025592
18:00−29зюз1298100 0.1 102619
21:00−30зюз1199100 0.2 102619
3 марта, ср
ср300:00−30зюз1199100 0.1 102519
03:00−30зсз1199100 0.2 102519
06:00−30сз0198100 0.1 102419
09:00−29зсз0197100 0.1 1024126
12:00−27зсз1189100 0.1 1022475
15:00−27зсз2290100 0.1 1020645
18:00−29зсз2298100 0.1 101956
21:00−31з229998 0.1 101849